Regional Weather Roundup
Issued by NWS

Home | Current Version | Previous Version | Graphics & Text | Print | Product List | Glossary On
Versions: 1 2 3 4 5 6 7 8 9 10 11 12 13 14 15 16 17 18 19 20 21 22 23 24 25 26 27 28 29 30 31 32 33 34 35 36 37 38 39 40 41 42 43 44 45 46 47 48 49 50
235
ASUS45 KTFX 240710
RWRMT
MONTANA REGIONAL WEATHER ROUNDUP
NATIONAL WEATHER SERVICE GREAT FALLS MT
100 AM MDT SUN JUL 24 2016

NOTE: "FAIR" INDICATES FEW OR NO CLOUDS BELOW 12000 FEET WITH NO
SIGNIFICANT WEATHER AND/OR OBSTRUCTIONS TO VISIBILITY.

MTZ001>007-043-240800-
WEST OF THE DIVIDE

CITY           SKY/WX    TMP DP  RH WIND       PRES   REMARKS
KALISPELL      CLEAR     50  46  86 VRB6      30.12S
MISSOULA       CLEAR     60  43  53 MISG      30.16R
BUTTE          CLEAR     50  35  56 SE7       30.24S
MULLAN PASS    CLEAR     49  40  71 CALM      30.27R
DEER LODGE       N/A     54  37  54 CALM      30.23R
EUREKA           N/A     59  46  63 CALM      30.13R
HAMILTON         N/A     55  43  62 CALM      30.17R
LIBBY            N/A     54  45  71 CALM      30.15R
PLAINS           N/A     55  44  66 CALM      30.15R
RONAN            N/A     54  45  71 W2        30.19R
$$

MTZ008-052>055-240800-
SOUTHWEST MONTANA

CITY           SKY/WX    TMP DP  RH WIND       PRES   REMARKS
BOZEMAN        CLOUDY    58  41  53 W7        30.17R
DILLON         CLEAR     58  38  47 S5        30.20R
W YELLOWSTONE  CLEAR     43  36  75 CALM      30.28S
ENNIS          PTCLDY    54  37  54 CALM      30.25S
THREE FORKS      N/A     52  19  27 CALM      30.15R
TWIN BRIDGES     N/A     65  33  30 N10       30.15R
$$

MTZ009-010-012-014-046-048-049-054-240800-
EAST SLOPES AND CENTRAL MONTANA

CITY           SKY/WX    TMP DP  RH WIND       PRES   REMARKS
CUT BANK       CLEAR     57  39  51 W10       30.10R
GREAT FALLS    CLEAR     61  37  41 CALM      30.12R
MALMSTROM AFB  CLEAR     61  40  46 SW5       30.11R
HELENA         CLEAR     61  36  39 N3        30.14R
CHOTEAU          N/A     59  36  41 W7        30.14S
$$

MTZ011-013-016-021-045-047-050-051-240800-
NORTH CENTRAL MONTANA

CITY           SKY/WX    TMP DP  RH WIND       PRES   REMARKS
HAVRE          MOCLDY    59  52  77 MISG      30.03R
LEWISTOWN      CLOUDY    57  46  66 E6        30.13R
N BAR RANCH    CLOUDY    55  45  67 VRB3      30.17R
CHINOOK          N/A     57  54  88 CALM      30.03R
$$

MTZ017>020-022>027-061-062-240800-
NORTHEAST MONTANA

CITY           SKY/WX    TMP DP  RH WIND       PRES   REMARKS
GLASGOW        CLEAR     62  51  67 S8        30.02S
JORDAN           N/A     56  48  74 CALM      30.06S
SIDNEY         CLEAR     59  52  77 CALM      30.02R
WOLF POINT     CLEAR     57  51  80 CALM      30.03R
PLENTYWOOD       N/A     57  55  94 W3        29.99S
POPLAR           N/A     57  52  82 W3        30.03R
SCOBEY           N/A     54  44  68 CALM      30.01R
$$

MTZ028>42-056>058-240800-
SOUTHCENTRAL AND SOUTHEAST MONTANA

CITY           SKY/WX    TMP DP  RH WIND       PRES   REMARKS
BAKER          CLEAR     57  52  83 CALM      30.09R
BILLINGS       MOCLDY    68  46  45 SW8       30.11S
LIVINGSTON     CLEAR     60  39  45 NW9       30.16R
MILES CITY     CLEAR     67  49  52 E8        30.06S
EKALAKA          N/A     62  44  51 CALM      30.09R
FORSYTH          N/A     66  52  59 CALM      30.06S
LAUREL           N/A     60  47  62 CALM      30.08R
ROUNDUP          N/A     62  45  53 CALM      30.02R
$$

REGIONAL REPORTS...DAKOTAS

CITY           SKY/WX    TMP DP  RH WIND       PRES   REMARKS
WILLISTON      CLEAR     62  53  72 W12       29.99R
MINOT          CLEAR     69  58  67 W15       29.89R
DICKINSON      CLEAR     55  51  86 W9        30.01S
CROSBY           N/A     59  57  94 W13       29.96S
BISMARCK       CLEAR     66  57  72 W9        29.95R
GRAND FORKS    CLEAR     66  61  84 W12       29.75R
FARGO          CLEAR     70  66  87 W10       29.79R
BUFFALO SD       N/A     64  48  56 N9        30.02R
RAPID CITY     CLEAR     58  43  57 N10       30.10R
$$

REGIONAL REPORTS...WYOMING/IDAHO/WASHINGTON

CITY           SKY/WX    TMP DP  RH WIND       PRES   REMARKS
GILLETTE       CLEAR     55  39  54 SW5       30.15R
SHERIDAN       CLEAR     57  42  57 SE5       30.15S
BUFFALO WY     CLEAR     62  36  37 W8        30.22R
CODY           CLEAR     63  37  39 NW7       30.19S
YELLOWSTONE LA   N/A     44  34  67 CALM      30.36F
IDAHO FALLS    CLEAR     67  31  26 S14       30.12R
SALMON         CLEAR     59  43  55 CALM      30.15R
BOISE          CLEAR     69  37  30 NW3       30.05S
SPOKANE        CLEAR     66  43  43 CALM      30.12S
$$

REGIONAL REPORTS...ALBERTA

CITY           SKY/WX    TMP DP  RH WIND       PRES   REMARKS
EDMONTON       PTCLDY    54  50  87 SW3       29.96R
CALGARY        PTCLDY    59  50  72 VRB2      30.06S
LETHBRIDGE     CLEAR     63  48  59 W14G20    30.03R
MEDICINE HAT   CLEAR     57  55  94 SW8       29.98R
WATERTON GATE    N/A     59  43  55 SW15        N/A
CARDSTON         N/A     57  43  58 SW8         N/A
MILK RIVER       N/A     54  46  76 NW7         N/A
ONEFOUR          N/A     57  46  67 NW2         N/A
$$

REGIONAL REPORTS...SASKATCHEWAN

CITY           SKY/WX    TMP DP  RH WIND       PRES   REMARKS
SWIFT CURRENT  CLEAR     54  52  94 SW10      30.01R
REGINA         CLEAR     55  55 100 W9        29.93R
SASKATOON      PTCLDY    57  54  88 W9        29.92R
CYPRESS HILLS    N/A     57  46  67 SW3         N/A
ROCKGLEN         N/A     55  52  88 W3          N/A
ASSINIBOIA       N/A     54  52  94 SW5         N/A
$$




USA.gov is the U.S. government's official web portal to all federal, state and local government web resources and services.